SNJ86 ROAH-RJFK

Flight info

Callsign SNJ86
Flight time N/A
Altitude 37000
Route AMAMI Y25 BOMAP Y455 KINKO
Aircraft B738/M-SDE2E3FGHIRWXY/LB1

Departure

Time N/A
Airport Naha International Airport (ROAH)

Arrival

Time 2026-04-27 12:37
Airport Kagoshima Airport (RJFK)
Time Latitude Longitude Altitude Speed Heading
2026-04-27 11:46 27.17914 127.83764 28452 ft 461 kts 18°
2026-04-27 11:46 27.20712 127.85633 28788 ft 476 kts 36°
2026-04-27 11:46 27.23102 127.88233 29238 ft 481 kts 42°
2026-04-27 11:47 27.25418 127.90964 29624 ft 485 kts 43°
2026-04-27 11:47 27.27738 127.93739 29971 ft 488 kts 43°
2026-04-27 11:47 27.30080 127.96521 30288 ft 491 kts 42°
2026-04-27 11:47 27.32448 127.99301 30595 ft 493 kts 42°
2026-04-27 11:48 27.34838 128.02076 30893 ft 495 kts 41°
2026-04-27 11:48 27.37217 128.04827 31197 ft 497 kts 41°
2026-04-27 11:48 27.39633 128.07616 31592 ft 497 kts 41°
2026-04-27 11:48 27.42043 128.10403 32046 ft 496 kts 41°
2026-04-27 11:49 27.44446 128.13187 32475 ft 494 kts 41°
2026-04-27 11:49 27.46835 128.15975 32868 ft 495 kts 43°
2026-04-27 11:49 27.49098 128.18915 33245 ft 498 kts 47°
2026-04-27 11:49 27.51244 128.21978 33656 ft 498 kts 49°
2026-04-27 11:50 27.53336 128.25087 34064 ft 497 kts 49°
2026-04-27 11:50 27.55416 128.28205 34406 ft 497 kts 49°
2026-04-27 11:50 27.57511 128.31320 34694 ft 498 kts 49°
2026-04-27 11:50 27.59621 128.34423 34982 ft 499 kts 48°
2026-04-27 11:51 27.61746 128.37518 35287 ft 499 kts 48°
2026-04-27 11:51 27.63876 128.40600 35616 ft 498 kts 48°
2026-04-27 11:51 27.68118 128.46720 36227 ft 498 kts 48°
2026-04-27 11:52 27.70253 128.49800 36577 ft 497 kts 48°
2026-04-27 11:52 27.72407 128.52913 36943 ft 496 kts 48°
2026-04-27 11:52 27.74504 128.55946 37064 ft 500 kts 48°
2026-04-27 11:53 27.78821 128.62199 37053 ft 501 kts 48°
2026-04-27 11:53 27.83045 128.68336 37051 ft 494 kts 48°
2026-04-27 11:54 27.87259 128.74462 37060 ft 494 kts 48°
2026-04-27 11:54 27.91474 128.80596 37067 ft 494 kts 48°
2026-04-27 11:55 27.95694 128.86745 37062 ft 495 kts 48°
2026-04-27 11:55 27.99917 128.92910 37069 ft 495 kts 48°
2026-04-27 11:56 28.04111 128.99043 37053 ft 495 kts 48°
2026-04-27 11:56 28.08333 129.05223 37060 ft 495 kts 48°
2026-04-27 11:57 28.12558 129.11418 37055 ft 496 kts 49°
2026-04-27 11:57 28.16769 129.17601 37061 ft 496 kts 49°
2026-04-27 11:58 28.20954 129.23755 37057 ft 495 kts 49°
2026-04-27 11:58 28.25159 129.29947 37067 ft 495 kts 49°
2026-04-27 11:59 28.29367 129.36152 37059 ft 496 kts 49°
2026-04-27 11:59 28.33577 129.42370 37050 ft 496 kts 49°
2026-04-27 12:00 28.37774 129.48578 37036 ft 496 kts 48°
2026-04-27 12:00 28.41999 129.54757 37013 ft 493 kts 42°
2026-04-27 12:00 28.44595 129.57203 37047 ft 478 kts 25°
2026-04-27 12:01 28.47557 129.58805 37017 ft 465 kts
2026-04-27 12:01 28.50635 129.59552 37040 ft 454 kts
2026-04-27 12:01 28.53762 129.60023 37032 ft 453 kts 359°
2026-04-27 12:02 28.60031 129.60864 37037 ft 454 kts 359°
2026-04-27 12:02 28.66308 129.61757 37040 ft 455 kts 360°
2026-04-27 12:03 28.72610 129.62710 37047 ft 457 kts
2026-04-27 12:03 28.78917 129.63681 37052 ft 457 kts 360°
2026-04-27 12:04 28.85212 129.64652 37052 ft 458 kts 360°
2026-04-27 12:04 28.91538 129.65626 37053 ft 458 kts 360°
2026-04-27 12:05 28.97856 129.66599 37053 ft 458 kts 360°
2026-04-27 12:05 29.04184 129.67576 37051 ft 458 kts 360°
2026-04-27 12:06 29.10498 129.68551 37049 ft 457 kts 359°
2026-04-27 12:06 29.16752 129.69509 37047 ft 456 kts 359°
2026-04-27 12:07 29.23041 129.70447 37049 ft 455 kts 359°
2026-04-27 12:07 29.28961 129.71332 37046 ft 454 kts 359°
2026-04-27 12:08 29.35222 129.72273 37046 ft 453 kts 359°
2026-04-27 12:08 29.41481 129.73232 37049 ft 452 kts 359°
2026-04-27 12:09 29.47712 129.74199 37048 ft 452 kts 359°
2026-04-27 12:09 29.53934 129.75165 37050 ft 451 kts 359°
2026-04-27 12:10 29.60115 129.76124 37048 ft 450 kts 359°
2026-04-27 12:10 29.66318 129.77087 37043 ft 450 kts 359°
2026-04-27 12:11 29.72528 129.78052 37045 ft 450 kts 359°
2026-04-27 12:11 29.78739 129.79018 37045 ft 450 kts 359°
2026-04-27 12:12 29.84935 129.79984 37047 ft 450 kts 359°
2026-04-27 12:12 29.91143 129.80953 37046 ft 450 kts 359°
2026-04-27 12:13 29.97364 129.81933 36806 ft 455 kts
2026-04-27 12:13 30.00478 129.82814 36315 ft 465 kts 10°
2026-04-27 12:13 30.03493 129.84272 35741 ft 473 kts 20°
2026-04-27 12:13 30.06364 129.86137 35101 ft 476 kts 23°
2026-04-27 12:14 30.09180 129.88072 34429 ft 477 kts 24°
2026-04-27 12:14 30.12066 129.90075 33638 ft 479 kts 24°
2026-04-27 12:14 30.14895 129.92020 33033 ft 476 kts 24°
2026-04-27 12:14 30.17727 129.93944 32507 ft 471 kts 24°
2026-04-27 12:15 30.20549 129.95842 31975 ft 466 kts 23°
2026-04-27 12:15 30.23341 129.97708 31474 ft 461 kts 23°
2026-04-27 12:15 30.26104 129.99552 30965 ft 457 kts 23°
2026-04-27 12:15 30.28850 130.01385 30469 ft 453 kts 23°
2026-04-27 12:16 30.31574 130.03206 29953 ft 450 kts 23°
2026-04-27 12:16 30.34272 130.05014 29370 ft 446 kts 22°
2026-04-27 12:16 30.36932 130.06799 29065 ft 436 kts 22°
2026-04-27 12:16 30.39539 130.08549 28609 ft 431 kts 22°
2026-04-27 12:17 30.42102 130.10265 28124 ft 427 kts 22°
2026-04-27 12:17 30.44658 130.11976 27613 ft 424 kts 22°
2026-04-27 12:17 30.47209 130.13684 27111 ft 422 kts 22°
2026-04-27 12:17 30.49746 130.15384 26609 ft 420 kts 22°
2026-04-27 12:18 30.52088 130.16954 26136 ft 418 kts 22°
2026-04-27 12:18 30.54619 130.18652 25611 ft 418 kts 22°
2026-04-27 12:18 30.57130 130.20338 25097 ft 417 kts 22°
2026-04-27 12:18 30.59647 130.22030 24584 ft 416 kts 22°
2026-04-27 12:19 30.62156 130.23717 24069 ft 416 kts 22°
2026-04-27 12:19 30.64672 130.25411 23542 ft 416 kts 22°
2026-04-27 12:19 30.67148 130.27078 22959 ft 416 kts 23°
2026-04-27 12:19 30.69637 130.28757 22425 ft 413 kts 23°
2026-04-27 12:20 30.72126 130.30437 21927 ft 411 kts 23°
2026-04-27 12:20 30.74568 130.32087 21427 ft 408 kts 24°
2026-04-27 12:20 30.77048 130.33762 20921 ft 406 kts 24°
2026-04-27 12:20 30.79480 130.35406 20411 ft 404 kts 24°
2026-04-27 12:21 30.81904 130.37044 19906 ft 402 kts 24°
2026-04-27 12:21 30.84303 130.38668 19431 ft 398 kts 25°
2026-04-27 12:21 30.86700 130.40290 18916 ft 397 kts 25°
2026-04-27 12:21 30.89083 130.41904 18410 ft 395 kts 25°
2026-04-27 12:22 30.91425 130.43490 17868 ft 393 kts 25°
2026-04-27 12:22 30.93780 130.45088 17362 ft 389 kts 25°
2026-04-27 12:22 30.96108 130.46669 16868 ft 386 kts 25°
2026-04-27 12:22 30.98421 130.48240 16384 ft 382 kts 26°
2026-04-27 12:23 31.00713 130.49797 15909 ft 378 kts 26°
2026-04-27 12:23 31.02977 130.51335 15441 ft 375 kts 26°
2026-04-27 12:23 31.05216 130.52858 14976 ft 371 kts 26°
2026-04-27 12:23 31.07438 130.54370 14516 ft 368 kts 26°
2026-04-27 12:24 31.09643 130.55871 14040 ft 366 kts 26°
2026-04-27 12:24 31.11835 130.57364 13545 ft 363 kts 26°
2026-04-27 12:24 31.14004 130.58842 13052 ft 359 kts 26°
2026-04-27 12:24 31.16150 130.60305 12574 ft 356 kts 27°
2026-04-27 12:25 31.18279 130.61757 12129 ft 352 kts 27°
2026-04-27 12:25 31.20376 130.63186 11748 ft 347 kts 27°
2026-04-27 12:25 31.22447 130.64596 11318 ft 344 kts 27°
2026-04-27 12:25 31.24514 130.66004 10947 ft 340 kts 27°
2026-04-27 12:26 31.26524 130.67374 10532 ft 336 kts 27°
2026-04-27 12:26 31.28510 130.68730 10338 ft 326 kts 27°
2026-04-27 12:26 31.30434 130.70044 10188 ft 315 kts 27°
2026-04-27 12:26 31.32295 130.71315 10045 ft 305 kts 27°
2026-04-27 12:27 31.34066 130.72616 9949 ft 295 kts 33°
2026-04-27 12:27 31.35692 130.74084 9473 ft 299 kts 36°
2026-04-27 12:27 31.36785 130.75133 9254 ft 297 kts 37°
2026-04-27 12:27 31.38896 130.77171 8797 ft 295 kts 37°
2026-04-27 12:28 31.39775 130.78013 8632 ft 295 kts 37°
2026-04-27 12:28 31.41361 130.79520 8292 ft 295 kts 37°
2026-04-27 12:28 31.43487 130.81522 7845 ft 293 kts 37°
2026-04-27 12:28 31.44558 130.82528 7642 ft 291 kts 37°
2026-04-27 12:29 31.46134 130.84007 7315 ft 289 kts 37°
2026-04-27 12:29 31.47687 130.85463 7063 ft 279 kts 37°
2026-04-27 12:29 31.49205 130.86886 6730 ft 279 kts 37°
2026-04-27 12:29 31.50713 130.88298 6429 ft 278 kts 36°
2026-04-27 12:30 31.52423 130.89298 6110 ft 275 kts 11°
2026-04-27 12:30 31.54311 130.89280 5775 ft 273 kts 345°
2026-04-27 12:30 31.56045 130.88419 5482 ft 270 kts 330°
2026-04-27 12:30 31.57638 130.87329 5239 ft 267 kts 329°
2026-04-27 12:31 31.59191 130.86250 5187 ft 251 kts 329°
2026-04-27 12:31 31.60643 130.85250 5094 ft 234 kts 329°
2026-04-27 12:31 31.62006 130.84322 4988 ft 219 kts 329°
2026-04-27 12:31 31.63291 130.83456 4889 ft 207 kts 329°
2026-04-27 12:32 31.64525 130.82638 4404 ft 206 kts 330°
2026-04-27 12:32 31.65753 130.81828 3949 ft 192 kts 329°
2026-04-27 12:32 31.66813 130.81098 3676 ft 163 kts 329°
2026-04-27 12:32 31.67703 130.80492 3494 ft 138 kts 329°
2026-04-27 12:33 31.68496 130.79954 3315 ft 129 kts 329°
2026-04-27 12:33 31.69282 130.79421 3148 ft 132 kts 329°
2026-04-27 12:33 31.70078 130.78883 2970 ft 131 kts 329°
2026-04-27 12:33 31.70878 130.78340 2816 ft 137 kts 329°
2026-04-27 12:34 31.71690 130.77792 2608 ft 132 kts 332°
2026-04-27 12:34 31.72481 130.77283 2415 ft 126 kts 328°
2026-04-27 12:34 31.73229 130.76751 2282 ft 127 kts 329°
2026-04-27 12:34 31.74011 130.76213 2104 ft 132 kts 330°
2026-04-27 12:35 31.74796 130.75691 1927 ft 127 kts 328°
2026-04-27 12:35 31.75572 130.75174 1715 ft 132 kts 331°
2026-04-27 12:35 31.76283 130.74696 1530 ft 128 kts 327°
2026-04-27 12:35 31.76711 130.74394 1425 ft 128 kts 329°
2026-04-27 12:36 31.77475 130.73858 1167 ft 128 kts 328°
2026-04-27 12:36 31.78224 130.73346 1080 ft 127 kts 330°
2026-04-27 12:36 31.79004 130.72846 989 ft 129 kts 330°
2026-04-27 12:36 31.79770 130.72318 917 ft 120 kts 329°
2026-04-27 12:37 31.80172 130.72051 916 ft 28 kts 328°
2026-04-27 12:37 31.80341 130.71937 915 ft 27 kts 330°
2026-04-27 12:37 31.80480 130.71842 916 ft 16 kts 328°
2026-04-27 12:37 31.80509 130.71753 916 ft 14 kts 247°
2026-04-27 12:38 31.80493 130.71718 910 ft 1 kts 240°
2026-04-27 12:38 31.80490 130.71712 910 ft 0 kts 240°
2026-04-27 12:43 31.80473 130.71680 909 ft 9 kts 234°
2026-04-27 12:44 31.80398 130.71666 905 ft 14 kts 157°
2026-04-27 12:44 31.80346 130.71701 908 ft 0 kts 148°
2026-04-27 12:44 31.80337 130.71707 905 ft 3 kts 149°
2026-04-27 12:44 31.80309 130.71727 905 ft 6 kts 149°
2026-04-27 12:45 31.80263 130.71759 905 ft 9 kts 149°
2026-04-27 12:45 31.80217 130.71765 907 ft 3 kts 218°
2026-04-27 12:45 31.80205 130.71731 902 ft 7 kts 248°
2026-04-27 12:45 31.80178 130.71673 901 ft 5 kts 241°
2026-04-27 12:46 31.80173 130.71662 901 ft 0 kts 240°